SCP
1 1 0 0 0 1 1 1 1 1 1 0 0 0 1 1 1 1 1 1 1 1 2 1 1 1 1 1 1 1 1 1 1 1 1 1 1 1 2 2 2 2 2
1 1 0 0 0 1 1 1 1 1 1 1 1 0 0 1 1 0 1 1 1 1 2 2 1 1 1 1 1 1 1 1 1 1 1 1 1 1 2 2 2 2 2
1 1 1 0 0 0 0 0 1 1 1 1 1 1 1 1 0 0 0 1 1 1 1 2 2 2 2 1 1 1 1 1 1 1 1 1 1 2 2 2 2 3 3
1 1 1 1 1 1 0 0 0 0 1 1 1 1 1 1 1 0 0 1 1 1 1 2 2 2 2 2 1 1 1 2 2 1 1 1 1 1 2 2 2 2 2
1 1 1 1 1 1 0 0 0 0 0 0 0 1 1 1 1 1 1 1 1 1 1 1 2 2 2 2 2 2 2 2 1 1 1 1 1 1 2 2 2 2 2
1 1 2 1 1 1 0 0 0 0 0 0 0 0 0 1 1 1 1 1 1 1 1 1 2 2 2 2 2 2 2 2 2 1 1 1 1 1 1 1 2 2 2
1 2 2 1 1 1 0 0 0 0 0 0 0 0 0 0 0 1 1 1 1 1 1 1 1 1 2 2 2 2 2 2 2 2 2 2 2 1 1 1 1 1 1
1 1 1 1 1 0 0 0 0 0 0 0 0 0 0 0 0 1 1 1 1 1 1 1 1 1 1 2 2 2 2 2 2 2 2 2 2 2 2 2 1 1 1
1 1 1 1 1 1 0 0 0 0 0 0 0 1 0 0 0 1 1 1 1 1 1 1 1 1 1 1 1 2 2 2 2 2 2 2 2 2 2 2 2 2 2
1 1 1 1 1 1 1 1 0 0 0 0 1 1 1 1 0 1 1 1 1 1 1 1 1 1 1 1 1 1 2 2 2 2 2 2 2 2 2 2 2 2 2
1 1 1 1 1 1 1 1 1 0 0 0 0 1 1 1 1 1 1 1 1 1 1 1 1 1 1 1 1 1 2 2 2 2 2 2 2 2 2 2 2 2 2
1 1 1 1 1 1 1 1 1 1 1 1 1 1 1 1 1 1 1 1 1 1 1 1 1 1 1 1 1 1 1 2 2 2 2 2 2 2 2 2 2 2 1
1 1 1 1 1 1 1 1 1 1 1 1 1 1 1 1 1 1 1 1 1 1 1 1 1 1 1 1 1 1 1 1 2 1 2 2 2 2 2 2 2 1 1
2 2 2 1 1 1 1 1 1 1 1 1 1 1 1 1 1 1 1 1 1 1 1 1 1 1 1 1 1 1 1 1 1 1 1 2 2 2 2 2 2 1 1
3 3 2 2 2 2 2 1 1 1 1 1 1 1 1 1 1 1 1 1 1 1 1 1 1 1 1 1 1 1 1 1 1 1 1 1 1 1 1 1 1 1 1
4 3 3 3 3 3 2 2 2 2 1 1 1 1 1 1 1 1 1 1 1 1 1 1 1 1 1 1 1 1 1 1 1 1 1 1 1 1 1 1 1 1 1
4 4 4 4 4 4 4 3 3 2 2 2 1 1 1 1 1 1 1 1 1 1 1 1 1 1 1 1 1 1 1 1 1 1 1 1 1 1 1 1 0 0 0
5 4 4 4 4 4 5 5 4 3 3 3 2 2 1 1 1 1 1 1 1 1 1 1 0 0 0 1 1 1 1 1 1 1 1 1 0 1 1 0 0 0 0
3 4 4 3 3 4 5 6 5 4 4 4 3 2 2 1 1 1 1 1 1 1 1 0 0 0 0 1 1 1 1 1 1 1 1 0 0 0 0 0 0 0 0
2 2 3 4 3 3 4 5 6 5 4 4 4 3 3 2 2 1 1 1 1 0 0 0 0 0 0 1 1 1 1 1 1 1 1 0 0 0 0 0 0 0 0
1 2 3 4 4 3 3 4 5 5 5 5 4 4 4 3 2 2 1 1 1 1 1 0 0 0 1 1 1 1 1 1 1 1 1 1 0 0 0 0 0 0 0
2 2 3 4 4 4 3 2 3 3 5 5 5 5 5 4 4 3 2 1 1 1 1 1 1 1 1 1 1 1 1 1 1 1 1 1 0 0 0 0 0 0 0
3 3 3 3 4 4 3 2 1 2 3 5 6 6 6 6 5 4 3 2 1 1 1 1 1 1 1 1 1 1 1 1 1 1 1 0 0 0 0 0 0 0 0
4 4 4 3 3 4 3 2 1 2 2 3 5 7 7 6 6 5 4 3 2 1 1 1 1 1 1 0 0 0 1 0 0 0 0 0 0 0 0 0 0 0 0
5 5 5 5 4 4 3 2 2 2 2 2 4 5 7 6 5 4 4 3 2 2 1 1 0 0 0 0 0 0 0 0 0 0 0 0 0 0 0 0 0 0 0
6 5 5 5 5 4 2 1 2 3 3 2 2 4 6 5 3 3 4 4 3 2 1 1 0 0 0 0 0 0 0 0 0 0 1 1 1 1 1 0 0 0 0
Wind_Speed
1 1 1 0 1 0 0 1 1 1 1 0 1 1 2 3 3 3 3 9 10 10 11 11 11 11 10 9 9 9 9 9 8 8 8 9 9 9 9 9 9 9 10
2 2 1 1 1 1 0 0 0 0 0 1 1 1 1 2 3 3 3 5 9 10 10 11 11 10 10 10 9 9 9 9 8 8 8 8 8 8 8 9 9 8 9
2 2 1 1 1 1 0 0 1 1 1 1 1 1 0 1 2 3 3 2 3 7 10 10 10 10 10 10 10 10 9 9 8 8 8 8 8 8 8 7 8 8 8
2 2 1 1 1 0 1 1 1 1 1 1 1 0 0 1 1 2 2 3 2 3 6 10 10 10 10 10 10 10 9 9 9 8 8 8 8 8 7 7 7 7 7
2 2 1 1 1 1 1 1 1 1 1 1 0 0 0 1 1 2 2 3 3 3 3 6 10 10 10 10 10 10 9 10 9 9 9 9 9 9 8 8 8 8 8
2 2 1 1 1 1 1 1 1 1 0 0 1 1 1 1 1 1 2 2 2 3 3 4 4 6 10 10 9 10 10 10 10 10 10 10 9 9 9 9 9 8 8
2 1 1 1 1 1 1 1 1 1 0 1 1 2 2 2 1 1 1 1 2 3 3 3 3 3 4 8 9 10 10 10 10 9 10 10 10 9 9 10 10 9 9
2 1 1 1 1 1 1 1 2 1 0 0 1 1 2 3 3 1 0 1 1 1 1 2 3 3 3 2 4 8 9 9 9 9 9 9 9 9 9 9 9 10 10
2 1 2 2 1 2 2 2 2 2 2 1 1 2 2 2 2 2 1 0 0 1 1 1 1 2 3 2 2 4 7 8 9 9 9 9 9 9 9 9 10 10 10
1 1 2 2 2 2 2 2 2 2 2 2 1 1 2 3 2 2 3 1 1 1 1 1 1 1 2 2 3 4 5 6 8 8 8 8 9 9 9 9 10 10 9
1 2 2 2 2 1 2 1 1 2 2 2 2 1 1 1 2 2 2 2 2 1 0 1 1 1 2 2 2 3 5 5 7 8 7 7 8 9 9 10 10 10 10
1 1 1 1 1 1 2 2 2 1 1 2 2 1 2 1 2 2 2 2 1 1 1 0 1 1 1 1 2 3 3 3 4 6 7 7 8 8 8 9 10 10 10
1 1 1 1 1 1 2 2 1 1 1 1 2 1 2 2 2 2 2 1 1 1 1 1 1 1 1 1 1 2 2 1 3 4 5 5 6 6 6 7 8 8 8
2 2 2 1 1 1 1 1 1 2 1 2 2 1 1 1 1 2 2 2 1 1 1 1 1 1 1 1 2 2 1 1 2 4 4 4 4 4 4 4 5 5 6
2 2 2 2 1 1 1 1 1 1 1 1 1 1 1 1 1 1 1 2 3 2 2 2 1 1 1 1 2 1 1 1 2 3 4 5 4 3 3 3 4 4 4
2 2 2 2 2 1 1 1 1 1 1 1 1 1 1 0 0 0 1 1 2 3 2 2 2 1 1 1 2 1 2 2 2 3 4 4 4 4 4 3 4 4 4
1 2 2 2 2 2 2 2 2 1 1 1 1 1 1 1 0 0 1 1 1 2 2 2 1 1 0 1 1 1 1 1 1 2 3 3 4 4 3 3 3 3 4
1 2 2 1 2 2 2 2 2 1 1 2 2 1 1 1 0 0 1 1 1 1 2 1 1 1 1 2 1 1 1 1 1 1 2 2 3 4 4 3 3 3 3
1 1 1 2 2 2 2 2 2 2 2 2 2 2 2 2 1 1 1 1 1 1 2 2 1 1 1 1 0 1 1 1 1 1 2 2 2 3 3 3 3 3 3
2 2 1 2 2 2 2 2 2 2 2 2 3 3 3 3 4 3 2 2 2 1 1 2 1 1 1 1 0 0 1 1 1 0 1 1 2 2 2 2 3 4 4
3 2 2 2 2 2 2 2 2 3 3 3 3 3 4 4 5 4 3 3 3 2 2 2 1 1 1 1 1 1 1 1 1 1 0 0 0 1 2 2 3 4 4
3 2 2 3 2 3 2 3 3 3 3 3 4 4 4 4 4 4 4 5 5 5 4 3 2 3 3 3 2 2 1 1 2 1 1 1 1 1 2 2 3 4 5
2 2 3 3 3 3 4 3 4 3 3 3 4 3 3 2 2 3 3 4 5 6 6 5 5 5 4 4 3 2 2 2 3 3 1 1 1 2 3 3 5 5 5
3 3 3 3 3 4 3 3 3 2 3 3 3 4 4 3 3 4 3 2 3 4 5 5 5 5 5 4 5 4 3 1 1 1 2 1 2 2 3 2 5 6 6
3 3 3 3 4 4 4 4 3 2 2 3 3 3 3 4 5 5 4 3 3 3 4 5 6 5 5 5 4 2 2 1 1 2 1 2 1 1 2 2 3 6 6
3 2 3 3 4 4 4 4 4 2 2 2 2 3 4 5 5 6 5 5 5 4 3 2 3 3 3 3 4 5 4 3 2 2 2 2 1 1 1 2 2 2 3
Wind_Direction
172 188 217 250 289 311 344 333 332 351 346 335 174 160 164 172 177 176 179 183 184 185 183 185 187 187 186 187 188 188 188 189 189 190 191 194 196 198 197 198 202 204 201
172 181 198 215 245 240 225 209 270 24 6 65 78 114 159 170 178 185 184 187 190 189 188 189 191 191 191 191 192 193 191 190 189 190 192 194 196 197 200 202 202 202 202
161 165 171 202 229 223 196 83 16 50 54 68 63 52 111 169 194 191 185 186 194 197 196 196 197 197 197 199 199 198 195 194 193 192 194 196 199 202 203 202 200 202 204
168 153 155 201 218 161 109 112 74 55 37 44 49 346 306 198 204 197 189 190 190 204 206 204 203 204 204 206 205 200 197 197 198 198 197 198 201 203 201 201 201 199 200
168 157 164 211 182 138 143 140 79 95 61 6 330 298 285 250 231 205 192 196 195 205 211 210 211 209 209 210 209 206 203 203 203 202 201 203 205 205 203 202 203 202 202
159 156 147 156 127 114 97 94 103 66 147 293 318 340 320 291 270 218 208 204 199 202 210 215 212 214 213 209 212 212 211 208 207 206 206 208 208 207 206 205 205 206 207
174 147 136 150 143 137 159 149 132 82 18 51 54 0 344 330 309 249 216 207 211 209 205 210 203 206 210 210 216 216 214 212 210 207 209 209 210 209 210 210 208 210 211
183 160 157 168 158 138 109 113 120 118 261 155 129 80 355 344 337 317 283 195 200 206 213 217 209 208 205 202 209 211 211 214 215 214 210 208 210 211 211 213 215 215 214
177 166 156 157 159 148 167 182 165 156 202 248 177 148 154 241 303 315 296 256 205 227 228 211 186 194 192 190 203 205 212 218 218 218 213 210 212 213 215 216 218 217 216
178 164 150 153 160 156 177 214 178 177 175 226 266 216 188 178 183 296 318 331 328 262 232 232 212 194 172 173 183 185 200 215 217 217 218 215 214 216 217 218 218 218 216
185 162 150 145 151 155 177 196 187 190 189 198 209 218 221 219 185 185 271 305 326 313 268 239 201 185 164 168 182 189 196 210 214 212 217 219 218 218 217 219 220 219 217
209 180 147 149 166 167 185 195 190 186 199 197 206 195 183 190 199 189 219 248 274 298 328 303 174 187 177 177 184 170 183 200 204 209 213 218 221 220 221 221 221 219 216
197 216 181 175 189 200 197 184 175 198 196 186 204 218 213 215 194 180 178 212 245 282 329 340 264 180 197 188 190 168 190 192 197 198 205 209 215 219 221 224 221 216 212
206 206 191 191 204 199 192 176 188 213 196 205 218 207 211 240 195 183 179 169 189 303 326 274 307 235 213 203 198 192 224 196 210 205 204 201 199 201 207 211 213 208 208
201 190 189 194 208 202 188 166 186 219 184 203 219 206 210 231 199 190 171 170 168 190 246 253 258 266 240 217 205 209 224 216 217 222 208 200 196 194 197 199 203 206 206
200 178 189 196 201 197 187 172 188 201 156 212 196 177 225 246 234 158 162 157 161 167 206 244 236 250 248 246 214 216 224 217 219 217 205 199 193 193 197 201 203 208 210
198 203 193 185 194 203 201 187 203 188 189 236 250 194 237 230 162 190 141 134 136 140 173 267 274 290 230 267 279 251 252 246 245 221 213 206 201 195 196 196 204 209 211
203 210 205 190 205 211 208 191 208 213 209 227 247 220 233 225 194 225 162 167 175 167 157 208 284 280 251 236 230 217 243 242 244 224 202 206 203 200 198 197 199 207 222
201 211 195 209 213 216 218 221 216 229 232 227 224 214 220 187 216 218 185 189 194 169 148 161 239 262 251 241 264 276 267 280 253 225 199 198 198 201 205 207 209 214 221
212 222 222 228 213 212 219 214 211 231 241 243 233 221 215 202 206 202 197 194 180 159 146 151 214 260 262 261 150 225 305 305 287 269 192 177 190 206 218 223 228 224 224
237 230 214 223 222 218 225 211 210 222 226 243 250 241 230 217 201 195 193 188 174 170 170 173 203 235 251 229 226 231 240 286 300 255 209 248 206 241 249 255 251 240 231
235 229 224 221 228 236 239 218 210 222 221 232 246 249 244 221 214 209 208 198 184 181 187 188 197 209 235 224 220 215 214 195 275 259 165 260 192 236 252 238 238 240 234
226 233 239 220 225 239 238 237 228 214 223 231 233 238 243 229 209 210 222 220 216 212 196 188 195 211 218 216 197 213 218 205 226 228 157 255 260 252 250 246 238 238 237
219 227 238 234 235 246 241 242 241 227 231 240 233 225 224 231 219 201 201 211 219 224 216 210 208 217 219 214 196 196 200 205 265 254 163 208 255 258 270 261 242 231 231
229 229 229 228 236 250 237 227 218 216 241 253 249 237 227 225 223 202 185 197 222 248 241 229 222 223 224 215 185 147 144 141 258 264 208 176 231 265 282 278 263 237 231
228 233 245 241 237 238 234 225 213 204 232 253 264 258 247 233 223 202 191 191 210 232 230 240 240 242 230 224 197 180 178 177 204 249 227 174 205 174 291 282 265 257 242